#timestamp,LO_Frequency,Hit 
1500260415.1,286047038.0,N
1500260416.0,286047038.0,N
1500260435.8,286047036.1,N
1500260455.7,286047033.3,N
1500260475.5,286047038.0,N
1500260495.3,286047034.9,N
1500260515.1,286047037.9,N
1500260535.9,286047037.9,N
1500260555.7,286047037.5,N
1500260575.5,286047035.0,N
1500260595.4,286047036.8,N
1500260615.2,286047038.0,N
1500260635.0,286047037.6,N
1500260635.9,286047037.6,N
1500260655.8,286047034.9,N
1500260675.6,286047037.8,N
1500260695.4,286047040.7,N
1500260715.3,286047042.8,N
1500260735.1,286047044.2,N
1500260736.0,286047044.2,N
1500260755.8,286047044.4,N
1500260775.7,286047042.0,N
1500260795.5,286047041.8,N
1500260815.3,286047044.3,N
1500260835.2,286047040.1,N
1500260855.9,286047041.4,N
1500260875.7,286047043.9,N
1500260895.6,286047041.7,N
1500260915.4,286047040.1,N
1500260935.2,286047042.8,N
1500260955.1,286047043.9,N
1500260956.0,286047043.9,N
1500260975.8,286047043.0,N
1500260995.6,286047043.4,N
1500261015.5,286047043.1,N
1500261035.3,286047046.2,N
1500261055.1,286047048.1,N
1500261075.8,286047045.3,N
1500261095.7,286047047.1,N
1500261115.5,286047048.7,N
1500261135.3,286047043.3,N
1500261155.2,286047044.8,N
1500261175.0,286047047.5,N
1500261175.9,286047047.5,N
1500261195.7,286047043.4,N
1500261215.6,286047044.3,N
1500261235.4,286047042.8,N
1500261255.2,286047042.6,N
1500261275.1,286047041.7,N
1500261276.0,286047041.7,N
1500261295.8,286047041.7,N
1500261315.6,286047042.3,N
1500261335.5,286047042.3,N
1500261355.3,286047041.0,N
1500261375.1,286047038.4,N
1500261395.9,286047041.2,N
1500261415.7,286047038.1,N
1500261435.5,286047042.7,N
1500261455.4,286047042.7,N
1500261475.2,286047041.5,N
1500261495.0,286047045.5,N
1500261495.9,286047045.5,N
1500261515.8,286047044.2,N
1500261535.6,286047039.8,N
1500261555.4,286047040.6,N
1500261575.3,286047043.1,N
1500261595.1,286047047.3,N
1500261596.0,286047047.3,N
1500261615.8,286047048.9,N
1500261635.6,286047048.3,N
1500261655.5,286047044.6,N
1500261675.3,286047047.6,N
1500261695.1,286047045.6,N
1500261715.9,286047046.0,N
1500261735.7,286047046.0,N
1500261755.5,286047044.4,N
1500261775.4,286047045.9,N
1500261795.2,286047049.1,N
1500261815.0,286047048.3,N
1500261815.9,286047048.3,N
1500261835.8,286047050.9,N
1500261855.6,286047054.0,Y
1500261875.4,286047010.2,N
1500261895.3,286047010.6,N
1500261915.1,286047006.4,N
1500261935.8,286047004.9,N
1500261955.7,286047004.6,N
1500261975.5,286047007.4,N
1500261995.3,286047005.0,N
1500262015.2,286047009.9,N
1500262035.9,286047012.3,N
1500262055.7,286047008.9,N
1500262075.6,286047007.8,N
1500262095.4,286047008.0,N
1500262115.2,286047012.0,N
1500262135.1,286047013.1,N
1500262136.0,286047013.1,N
1500262155.8,286047015.5,N
1500262175.6,286047015.3,N
1500262195.5,286047014.4,N
1500262215.3,286047013.0,N
1500262235.1,286047011.1,N
1500262255.9,286047008.1,N
1500262275.7,286047012.1,N
1500262295.5,286047010.2,N
1500262315.3,286047009.4,N
1500262335.2,286047014.0,N
1500262355.0,286047015.6,N
1500262355.9,286047015.6,N
1500262375.7,286047013.2,N
1500262395.6,286047012.9,N
1500262415.4,286047011.2,N
1500262435.2,286047012.1,N
1500262455.1,286047013.6,N
1500262456.0,286047013.6,N
1500262475.8,286047015.6,N
1500262495.6,286047013.7,N
1500262515.5,286047014.9,N
1500262535.3,286047012.9,N
1500262555.1,286047014.0,N
1500262575.9,286047011.7,N
1500262595.7,286047013.9,N
1500262615.5,286047012.8,N
1500262635.4,286047013.1,N
1500262655.2,286047013.9,N
1500262675.0,286047013.6,N
1500262675.9,286047013.6,N
1500262695.8,286047009.5,N
1500262715.6,286047011.7,N
1500262735.4,286047014.0,N
1500262755.3,286047009.5,N
1500262775.1,286047012.1,N
1500262776.0,286047012.1,N
1500262795.8,286047011.2,N
1500262815.7,286047013.7,N
1500262835.5,286047014.6,N
1500262855.3,286047013.9,N
1500262875.2,286047011.3,N
1500262895.9,286047014.5,N
1500262915.7,286047014.6,N
1500262935.5,286047014.7,N
1500262955.4,286047013.8,N
1500262975.2,286047013.2,N
1500262995.0,286047013.0,N
1500262995.9,286047013.0,N
1500263015.8,286047015.5,N
1500263035.6,286047013.5,N
1500263055.4,286047014.8,N
1500263075.3,286047014.3,N
1500263095.1,286047014.8,N
1500263115.8,286047015.5,N
1500263135.7,286047015.0,N
1500263155.5,286047013.7,N
1500263175.3,286047015.0,N
1500263195.2,286047016.8,N
1500263215.9,286047014.9,N
1500263235.7,286047015.5,N
1500263255.6,286047016.6,N
1500263275.4,286047016.4,N
1500263295.2,286047017.2,N
1500263315.0,286047015.1,N
1500263316.0,286047015.1,N
1500263335.8,286047015.5,N
1500263355.6,286047014.5,N
1500263375.4,286047016.4,N
1500263395.3,286047015.0,N
1500263415.1,286047014.7,N
1500263435.8,286047016.9,N
1500263455.7,286047018.4,N
1500263475.5,286047018.2,N
1500263495.3,286047017.9,N
1500263515.2,286047020.4,N
1500263535.9,286047017.6,N
1500263555.7,286047017.5,N
1500263575.6,286047014.7,N
1500263595.4,286047011.8,N
1500263615.2,286047013.2,N
1500263635.1,286047011.6,N
1500263636.0,286047011.6,N
1500263655.8,286047015.5,N
1500263675.7,286047014.1,N
1500263695.6,286047014.5,N
1500263715.9,286047015.0,N
1500263735.7,286047015.4,N
1500263755.6,286047016.2,N
1500263775.5,286047018.1,N
1500263795.3,286047017.3,N
1500263815.1,286047020.0,N
1500263835.9,286047017.5,N
1500263855.7,286047017.4,N
1500263875.5,286047020.1,N
1500263895.3,286047016.4,N
1500263915.2,286047017.3,N
1500263935.0,286047019.8,N
1500263935.9,286047019.8,N
1500263955.7,286047018.8,N
1500263975.6,286047017.0,N
1500263995.4,286047017.5,N
